Tracking 17844 objects as of 24-August-2016
HD Live streaming from Space Station
objects crossing your sky now

COSMOS 2278

Track COSMOS 2278 now!
10-day predictions
COSMOS 2278 is classified as:


NORAD ID: 23087
Int'l Code: 1994-023A
Perigee: 846.2 km
Apogee: 861.4 km
Inclination: 71.1 °
Period: 101.9 minutes
Semi major axis: 7224 km
RCS: 13.2242 m2 (large)
Launch date: April 23, 1994
Source: Commonwealth of Independent States (former USSR) (CIS)
Launch site: TYURATAM MISSILE AND SPACE COMPLEX (TTMTR)
Your satellite tracking list
Your tracking list is empty





NASA's NSSDC Master Catalog

Two Line Element Set (TLE):
1 23087U 94023A   16236.10888423  .00000296  00000-0  18116-3 0  9997
2 23087  71.0519 261.9611 0010463 302.9836  57.0279 14.13725306152365
Source of the keplerian elements: AFSPC

N2YO: 485